| time (UTC) | temp C | wind direction | speed KPH | gust KPH | rain 1hr cm | rain 24hr cm | rain mn cm | humidity % | barometer mb |
| 20260508040811 | 22 | 177 | 4.8 | 8.0 | 0.00 | 0.00 | 0.00 | 67 | 1015.1 |
| 20260508035805 | 22 | 184 | 3.2 | 11.3 | 0.00 | 0.00 | 0.00 | 65 | 1014.7 |
| 20260508034804 | 23 | 169 | 4.8 | 11.3 | 0.00 | 0.00 | 0.00 | 65 | 1014.7 |
| 20260508033801 | 23 | 199 | 4.8 | 11.3 | 0.00 | 0.00 | 0.00 | 64 | 1014.6 |
| 20260508032807 | 24 | 211 | 3.2 | 12.9 | 0.00 | 0.00 | 0.00 | 63 | 1014.6 |
| 20260508031841 | 25 | 192 | 4.8 | 16.1 | 0.00 | 0.00 | 0.00 | 61 | 1014.4 |
| 20260508030816 | 26 | 174 | 3.2 | 16.1 | 0.00 | 0.00 | 0.00 | 59 | 1014.4 |
| 20260508025812 | 26 | 195 | 6.4 | 14.5 | 0.00 | 0.00 | 0.00 | 55 | 1014.2 |
| 20260508024810 | 27 | 154 | 1.6 | 6.4 | 0.00 | 0.00 | 0.00 | 51 | 1013.9 |
| 20260508023808 | 27 | 189 | 1.6 | 4.8 | 0.00 | 0.00 | 0.00 | 49 | 1014.0 |
| 20260508022801 | 28 | 198 | 0.0 | 4.8 | 0.00 | 0.00 | 0.00 | 47 | 1014.0 |
| 20260508021819 | 28 | 196 | 0.0 | 1.6 | 0.00 | 0.00 | 0.00 | 47 | 1014.0 |
| 20260508020817 | 28 | 197 | 1.6 | 6.4 | 0.00 | 0.00 | 0.00 | 47 | 1014.0 |
| 20260508015814 | 28 | 251 | 3.2 | 6.4 | 0.00 | 0.00 | 0.00 | 46 | 1013.9 |
| 20260508014811 | 29 | 77 | 0.0 | 4.8 | 0.00 | 0.00 | 0.00 | 43 | 1014.0 |
| 20260508013814 | 29 | 201 | 1.6 | 6.4 | 0.00 | 0.00 | 0.00 | 44 | 1014.0 |
| 20260508012809 | 29 | 229 | 1.6 | 6.4 | 0.00 | 0.00 | 0.00 | 44 | 1014.1 |
| 20260508011829 | 29 | 303 | 4.8 | 9.7 | 0.00 | 0.00 | 0.00 | 46 | 1014.1 |
| 20260508010807 | 29 | 270 | 3.2 | 12.9 | 0.00 | 0.00 | 0.00 | 44 | 1014.2 |
| 20260508005801 | 30 | 332 | 3.2 | 9.7 | 0.00 | 0.00 | 0.00 | 45 | 1014.2 |
| 20260508004808 | 30 | 260 | 3.2 | 9.7 | 0.00 | 0.00 | 0.00 | 44 | 1014.3 |
| 20260508003807 | 29 | 274 | 4.8 | 8.0 | 0.00 | 0.00 | 0.00 | 45 | 1014.3 |
| 20260508002815 | 30 | 315 | 3.2 | 8.0 | 0.00 | 0.00 | 0.00 | 44 | 1014.4 |
| 20260508001815 | 29 | 318 | 1.6 | 8.0 | 0.00 | 0.00 | 0.00 | 45 | 1014.4 |
| 20260508000810 | 29 | 339 | 4.8 | 11.3 | 0.00 | 0.00 | 0.00 | 46 | 1014.4 |
| 20260507235806 | 29 | 270 | 4.8 | 8.0 | 0.00 | 0.00 | 0.00 | 45 | 1014.6 |
| 20260507234806 | 29 | 116 | 4.8 | 11.3 | 0.00 | 0.00 | 0.00 | 45 | 1014.5 |
| 20260507233807 | 29 | 278 | 6.4 | 12.9 | 0.00 | 0.00 | 0.00 | 46 | 1014.5 |
| 20260507232801 | 29 | 297 | 6.4 | 11.3 | 0.00 | 0.00 | 0.00 | 45 | 1014.7 |
| 20260507231803 | 29 | 260 | 3.2 | 8.0 | 0.00 | 0.00 | 0.00 | 45 | 1014.8 |
| 20260507230805 | 29 | 174 | 4.8 | 9.7 | 0.00 | 0.00 | 0.00 | 47 | 1014.9 |
| 20260507225838 | 28 | 358 | 4.8 | 9.7 | 0.00 | 0.00 | 0.00 | 45 | 1015.0 |
| 20260507224816 | 28 | 81 | 0.0 | 11.3 | 0.00 | 0.00 | 0.00 | 48 | 1015.1 |
| 20260507223814 | 28 | 254 | 4.8 | 12.9 | 0.00 | 0.00 | 0.00 | 47 | 1015.3 |
| 20260507222809 | 28 | 260 | 3.2 | 16.1 | 0.00 | 0.00 | 0.00 | 48 | 1015.4 |
| 20260507221812 | 27 | 274 | 1.6 | 12.9 | 0.00 | 0.00 | 0.00 | 50 | 1015.8 |
| 20260507220811 | 27 | 180 | 3.2 | 12.9 | 0.00 | 0.00 | 0.00 | 50 | 1016.0 |
| 20260507215807 | 27 | 182 | 3.2 | 9.7 | 0.00 | 0.00 | 0.00 | 50 | 1016.1 |
| 20260507214828 | 27 | 343 | 6.4 | 9.7 | 0.00 | 0.00 | 0.00 | 52 | 1016.4 |
| 20260507213809 | 27 | 340 | 6.4 | 9.7 | 0.00 | 0.00 | 0.00 | 51 | 1016.4 |
| 20260507212806 | 26 | 283 | 3.2 | 8.0 | 0.00 | 0.00 | 0.00 | 53 | 1016.5 |
| 20260507211808 | 26 | 301 | 3.2 | 12.9 | 0.00 | 0.00 | 0.00 | 53 | 1016.7 |
| 20260507210836 | 26 | 27 | 4.8 | 11.3 | 0.00 | 0.00 | 0.00 | 54 | 1016.9 |
| 20260507205812 | 25 | 35 | 4.8 | 9.7 | 0.00 | 0.00 | 0.00 | 55 | 1017.0 |
| 20260507204835 | 25 | 303 | 4.8 | 8.0 | 0.00 | 0.00 | 0.00 | 56 | 1017.1 |
| 20260507203811 | 25 | 270 | 6.4 | 14.5 | 0.00 | 0.00 | 0.00 | 55 | 1017.2 |
| 20260507202811 | 25 | 45 | 4.8 | 9.7 | 0.00 | 0.00 | 0.00 | 56 | 1017.4 |
| 20260507201832 | 25 | 289 | 6.4 | 12.9 | 0.00 | 0.00 | 0.00 | 55 | 1017.5 |
| 20260507200812 | 25 | 1 | 4.8 | 11.3 | 0.00 | 0.00 | 0.00 | 56 | 1017.5 |
| 20260507195813 | 24 | 291 | 3.2 | 9.7 | 0.00 | 0.00 | 0.00 | 56 | 1017.6 |
| 20260507194814 | 25 | 156 | 4.8 | 12.9 | 0.00 | 0.00 | 0.00 | 57 | 1017.8 |
| 20260507193816 | 24 | 260 | 6.4 | 12.9 | 0.00 | 0.00 | 0.00 | 58 | 1017.9 |
| 20260507192817 | 23 | 326 | 6.4 | 12.9 | 0.00 | 0.00 | 0.00 | 59 | 1018.0 |
| 20260507191816 | 23 | 178 | 3.2 | 9.7 | 0.00 | 0.00 | 0.00 | 61 | 1018.0 |
| 20260507190839 | 23 | 226 | 6.4 | 12.9 | 0.00 | 0.00 | 0.00 | 59 | 1018.2 |
| 20260507185816 | 23 | 270 | 9.7 | 16.1 | 0.00 | 0.00 | 0.00 | 60 | 1018.2 |
| 20260507184814 | 23 | 237 | 3.2 | 12.9 | 0.00 | 0.00 | 0.00 | 61 | 1018.3 |
| 20260507183818 | 23 | 236 | 3.2 | 12.9 | 0.00 | 0.00 | 0.00 | 62 | 1018.3 |
| 20260507182836 | 23 | 309 | 3.2 | 9.7 | 0.00 | 0.00 | 0.00 | 61 | 1018.5 |
| 20260507181816 | 23 | 276 | 4.8 | 9.7 | 0.00 | 0.00 | 0.00 | 62 | 1018.5 |
| 20260507180814 | 22 | 226 | 1.6 | 9.7 | 0.00 | 0.00 | 0.00 | 63 | 1018.4 |
| 20260507175831 | 22 | 270 | 4.8 | 9.7 | 0.00 | 0.00 | 0.00 | 63 | 1018.5 |
| 20260507174813 | 22 | 185 | 3.2 | 14.5 | 0.00 | 0.00 | 0.00 | 65 | 1018.5 |
| 20260507173813 | 21 | 297 | 4.8 | 8.0 | 0.00 | 0.00 | 0.00 | 64 | 1018.6 |
| 20260507172831 | 21 | 249 | 1.6 | 12.9 | 0.00 | 0.00 | 0.00 | 63 | 1018.7 |
| 20260507171832 | 21 | 166 | 4.8 | 11.3 | 0.00 | 0.00 | 0.00 | 65 | 1018.7 |
| 20260507170816 | 21 | 200 | 4.8 | 11.3 | 0.00 | 0.00 | 0.00 | 68 | 1018.7 |
| 20260507165811 | 21 | 176 | 3.2 | 4.8 | 0.00 | 0.00 | 0.00 | 69 | 1018.7 |
| 20260507164815 | 20 | 43 | 1.6 | 6.4 | 0.00 | 0.00 | 0.00 | 71 | 1018.6 |
| 20260507163815 | 20 | 107 | 3.2 | 6.4 | 0.00 | 0.00 | 0.00 | 70 | 1018.7 |
| 20260507162813 | 20 | 265 | 1.6 | 9.7 | 0.00 | 0.00 | 0.00 | 70 | 1018.7 |
| 20260507161813 | 18 | 180 | 1.6 | 6.4 | 0.00 | 0.00 | 0.00 | 73 | 1018.8 |
| 20260507160816 | 18 | 137 | 6.4 | 8.0 | 0.00 | 0.00 | 0.00 | 73 | 1018.8 |
| 20260507155813 | 18 | 182 | 6.4 | 9.7 | 0.00 | 0.00 | 0.00 | 73 | 1018.8 |
| 20260507154831 | 18 | 204 | 3.2 | 9.7 | 0.00 | 0.00 | 0.00 | 74 | 1018.9 |
| 20260507153813 | 17 | 137 | 1.6 | 11.3 | 0.00 | 0.00 | 0.00 | 75 | 1018.9 |
| 20260507152810 | 17 | 189 | 4.8 | 9.7 | 0.00 | 0.00 | 0.00 | 76 | 1018.8 |
| 20260507151809 | 17 | 115 | 0.0 | 9.7 | 0.00 | 0.00 | 0.00 | 78 | 1018.9 |
| 20260507150811 | 16 | 196 | 4.8 | 9.7 | 0.00 | 0.00 | 0.00 | 80 | 1018.9 |
| 20260507145808 | 16 | 199 | 3.2 | 4.8 | 0.00 | 0.00 | 0.00 | 82 | 1018.9 |
| 20260507144811 | 15 | 197 | 1.6 | 6.4 | 0.00 | 0.00 | 0.00 | 85 | 1018.9 |
| 20260507143810 | 15 | 163 | 3.2 | 9.7 | 0.00 | 0.00 | 0.00 | 87 | 1018.9 |
| 20260507142828 | 14 | 108 | 4.8 | 6.4 | 0.00 | 0.00 | 0.00 | 89 | 1018.8 |
| 20260507141812 | 13 | 180 | 3.2 | 9.7 | 0.00 | 0.00 | 0.00 | 89 | 1018.8 |
| 20260507140836 | 13 | 176 | 3.2 | 11.3 | 0.00 | 0.00 | 0.00 | 89 | 1018.7 |
| 20260507135810 | 13 | 205 | 3.2 | 12.9 | 0.00 | 0.00 | 0.00 | 89 | 1018.7 |
| 20260507134834 | 13 | 134 | 3.2 | 8.0 | 0.00 | 0.00 | 0.00 | 90 | 1018.5 |
| 20260507133818 | 12 | 103 | 4.8 | 8.0 | 0.00 | 0.00 | 0.00 | 90 | 1018.4 |
| 20260507132817 | 12 | 143 | 0.0 | 3.2 | 0.00 | 0.00 | 0.00 | 89 | 1018.3 |
| 20260507131759 | 12 | 126 | 0.0 | 0.0 | 0.00 | 0.00 | 0.00 | 89 | 1018.2 |
| 20260507130802 | 12 | 145 | 0.0 | 0.0 | 0.00 | 0.00 | 0.00 | 89 | 1018.1 |
| 20260507125803 | 12 | 118 | 0.0 | 0.0 | 0.00 | 0.00 | 0.00 | 89 | 1018.1 |
| 20260507124805 | 12 | 118 | 0.0 | 0.0 | 0.00 | 0.00 | 0.00 | 89 | 1018.2 |
| 20260507123828 | 13 | 149 | 0.0 | 0.0 | 0.00 | 0.00 | 0.00 | 88 | 1018.2 |
| 20260507122807 | 13 | 146 | 0.0 | 3.2 | 0.00 | 0.00 | 0.00 | 88 | 1018.1 |
| 20260507121829 | 13 | 131 | 1.6 | 4.8 | 0.00 | 0.00 | 0.00 | 88 | 1018.0 |
| 20260507120812 | 13 | 131 | 1.6 | 4.8 | 0.00 | 0.00 | 0.00 | 88 | 1018.0 |
| 20260507115813 | 13 | 140 | 0.0 | 3.2 | 0.00 | 0.00 | 0.00 | 87 | 1018.1 |
| 20260507114818 | 13 | 137 | 1.6 | 6.4 | 0.00 | 0.00 | 0.00 | 87 | 1018.2 |
| 20260507113801 | 13 | 141 | 3.2 | 8.0 | 0.00 | 0.00 | 0.00 | 87 | 1018.1 |
| 20260507112802 | 13 | 112 | 3.2 | 8.0 | 0.00 | 0.00 | 0.00 | 87 | 1018.1 |
| 20260507111805 | 13 | 117 | 4.8 | 8.0 | 0.00 | 0.00 | 0.00 | 87 | 1018.1 |
| 20260507110809 | 13 | 128 | 1.6 | 8.0 | 0.00 | 0.00 | 0.00 | 87 | 1018.1 |
| 20260507105831 | 13 | 175 | 3.2 | 8.0 | 0.00 | 0.00 | 0.00 | 87 | 1018.0 |
| 20260507104833 | 13 | 116 | 1.6 | 4.8 | 0.00 | 0.00 | 0.00 | 86 | 1018.0 |
| 20260507103814 | 13 | 132 | 0.0 | 6.4 | 0.00 | 0.00 | 0.00 | 86 | 1018.0 |
| 20260507102813 | 13 | 133 | 3.2 | 8.0 | 0.00 | 0.00 | 0.00 | 86 | 1018.0 |
| 20260507101818 | 13 | 138 | 1.6 | 6.4 | 0.00 | 0.00 | 0.00 | 86 | 1018.0 |
| 20260507100802 | 13 | 120 | 0.0 | 0.0 | 0.00 | 0.00 | 0.00 | 86 | 1018.1 |
| 20260507095801 | 14 | 137 | 0.0 | 0.0 | 0.00 | 0.00 | 0.00 | 86 | 1018.1 |
| 20260507094802 | 14 | 118 | 0.0 | 6.4 | 0.00 | 0.00 | 0.00 | 86 | 1018.1 |
| 20260507093801 | 14 | 138 | 1.6 | 4.8 | 0.00 | 0.00 | 0.00 | 86 | 1018.2 |
| 20260507092821 | 14 | 147 | 1.6 | 6.4 | 0.00 | 0.00 | 0.00 | 86 | 1018.1 |
| 20260507091800 | 15 | 151 | 3.2 | 6.4 | 0.00 | 0.00 | 0.00 | 86 | 1018.2 |
| 20260507090839 | 15 | 128 | 0.0 | 4.8 | 0.00 | 0.00 | 0.00 | 86 | 1018.3 |
| 20260507085814 | 15 | 150 | 3.2 | 8.0 | 0.00 | 0.00 | 0.00 | 85 | 1018.2 |
| 20260507084836 | 15 | 122 | 3.2 | 6.4 | 0.00 | 0.00 | 0.00 | 85 | 1018.3 |
| 20260507083820 | 15 | 143 | 1.6 | 8.0 | 0.00 | 0.00 | 0.00 | 84 | 1018.2 |
| 20260507082813 | 15 | 150 | 3.2 | 8.0 | 0.00 | 0.00 | 0.00 | 84 | 1018.3 |
| 20260507081815 | 15 | 165 | 1.6 | 11.3 | 0.00 | 0.00 | 0.00 | 84 | 1018.2 |
| 20260507080814 | 15 | 150 | 3.2 | 9.7 | 0.00 | 0.00 | 0.00 | 84 | 1018.2 |
| 20260507075817 | 16 | 149 | 4.8 | 11.3 | 0.00 | 0.00 | 0.00 | 84 | 1018.1 |
| 20260507074823 | 16 | 145 | 1.6 | 6.4 | 0.00 | 0.00 | 0.00 | 83 | 1018.2 |
| 20260507073807 | 16 | 138 | 4.8 | 11.3 | 0.00 | 0.00 | 0.00 | 83 | 1018.3 |
| 20260507072811 | 16 | 142 | 4.8 | 11.3 | 0.00 | 0.00 | 0.00 | 83 | 1018.2 |
| 20260507071814 | 16 | 114 | 4.8 | 8.0 | 0.00 | 0.00 | 0.00 | 82 | 1018.1 |
| 20260507070807 | 16 | 118 | 4.8 | 8.0 | 0.00 | 0.00 | 0.00 | 81 | 1018.2 |
| 20260507065811 | 16 | 146 | 3.2 | 8.0 | 0.00 | 0.00 | 0.00 | 80 | 1018.3 |
| 20260507064822 | 17 | 122 | 3.2 | 8.0 | 0.00 | 0.00 | 0.00 | 79 | 1018.1 |
| 20260507063804 | 17 | 132 | 4.8 | 8.0 | 0.00 | 0.00 | 0.00 | 79 | 1018.1 |
| 20260507062801 | 17 | 114 | 6.4 | 9.7 | 0.00 | 0.00 | 0.00 | 79 | 1018.1 |
| 20260507061841 | 17 | 126 | 3.2 | 8.0 | 0.00 | 0.00 | 0.00 | 79 | 1018.0 |
| 20260507060819 | 17 | 134 | 3.2 | 4.8 | 0.00 | 0.00 | 0.00 | 78 | 1018.0 |
| 20260507055814 | 17 | 112 | 1.6 | 6.4 | 0.00 | 0.00 | 0.00 | 78 | 1017.9 |
| 20260507054832 | 17 | 127 | 3.2 | 4.8 | 0.00 | 0.00 | 0.00 | 77 | 1017.8 |
| 20260507053806 | 18 | 183 | 3.2 | 9.7 | 0.00 | 0.00 | 0.00 | 76 | 1017.9 |
| 20260507052819 | 18 | 172 | 1.6 | 6.4 | 0.00 | 0.00 | 0.00 | 76 | 1017.9 |
| 20260507051802 | 18 | 171 | 3.2 | 6.4 | 0.00 | 0.00 | 0.00 | 75 | 1017.9 |
| 20260507050801 | 18 | 236 | 1.6 | 12.9 | 0.00 | 0.00 | 0.00 | 75 | 1017.9 |
| 20260507045817 | 18 | 171 | 0.0 | 12.9 | 0.00 | 0.00 | 0.00 | 75 | 1017.8 |
| 20260507044818 | 19 | 203 | 3.2 | 11.3 | 0.00 | 0.00 | 0.00 | 74 | 1017.7 |
| 20260507043816 | 19 | 169 | 3.2 | 14.5 | 0.00 | 0.00 | 0.00 | 73 | 1017.6 |
| 20260507042812 | 19 | 202 | 6.4 | 12.9 | 0.00 | 0.00 | 0.00 | 73 | 1017.6 |
| 20260507041811 | 19 | 205 | 1.6 | 4.8 | 0.00 | 0.00 | 0.00 | 72 | 1017.5 |